VJT402 EGGW-LEPA

Flight info

Callsign VJT402
Flight time N/A
Altitude 39000
Route RODNI DCT CPT DCT VAPID DCT SITET DCT SOPIL DCT BALAN DCT EVPOK DCT NARAK DCT LOMRA DCT ROCAN DCT IBRAP DCT LUKEV DCT LORES
Aircraft CL60/M-ICAO/HB1D1

Departure

Time 2026-05-01 14:57
Airport London Luton Airport (EGGW)

Arrival

Time N/A
Airport Palma de Mallorca Airport (LEPA)
Time Latitude Longitude Altitude Speed Heading
2026-05-01 14:23 51.87714 -0.37812 524 ft 0 kts 206°
2026-05-01 14:52 51.87716 -0.37831 524 ft 6 kts 341°
2026-05-01 14:53 51.87759 -0.37783 525 ft 10 kts 80°
2026-05-01 14:53 51.87729 -0.37655 523 ft 15 kts 117°
2026-05-01 14:53 51.87675 -0.37496 523 ft 16 kts 128°
2026-05-01 14:53 51.87566 -0.37457 525 ft 16 kts 193°
2026-05-01 14:54 51.87494 -0.37594 527 ft 17 kts 255°
2026-05-01 14:54 51.87458 -0.37802 524 ft 21 kts 255°
2026-05-01 14:54 51.87423 -0.37987 518 ft 12 kts 245°
2026-05-01 14:54 51.87361 -0.38069 514 ft 0 kts 205°
2026-05-01 14:55 51.87354 -0.38075 513 ft 5 kts 205°
2026-05-01 14:55 51.87297 -0.38106 511 ft 11 kts 179°
2026-05-01 14:55 51.87260 -0.38027 514 ft 8 kts 83°
2026-05-01 14:56 51.87262 -0.38011 515 ft 0 kts 75°
2026-05-01 14:56 51.87262 -0.38009 516 ft 2 kts 75°
2026-05-01 14:56 51.87320 -0.37657 527 ft 80 kts 74°
2026-05-01 14:56 51.87561 -0.36305 564 ft 160 kts 78°
2026-05-01 14:57 51.87904 -0.34392 1046 ft 189 kts 76°
2026-05-01 14:57 51.88641 -0.30350 2909 ft 197 kts 77°
2026-05-01 14:57 51.89024 -0.28168 3774 ft 210 kts 78°
2026-05-01 14:58 51.89368 -0.25841 4572 ft 220 kts 89°
2026-05-01 14:58 51.89002 -0.23511 4900 ft 216 kts 130°
2026-05-01 14:58 51.87832 -0.22191 4987 ft 205 kts 167°
2026-05-01 14:58 51.86420 -0.22087 4994 ft 202 kts 191°
2026-05-01 14:59 51.85135 -0.22971 4995 ft 202 kts 216°
2026-05-01 14:59 51.84205 -0.24674 5003 ft 206 kts 239°
2026-05-01 14:59 51.83754 -0.26895 5003 ft 210 kts 254°
2026-05-01 14:59 51.83438 -0.29193 5000 ft 211 kts 253°
2026-05-01 15:00 51.82787 -0.33810 4991 ft 210 kts 253°
2026-05-01 15:00 51.82462 -0.36106 4999 ft 211 kts 253°
2026-05-01 15:00 51.82133 -0.38426 5000 ft 210 kts 253°
2026-05-01 15:01 51.81810 -0.40699 5002 ft 210 kts 253°
2026-05-01 15:01 51.81479 -0.43026 4999 ft 211 kts 253°
2026-05-01 15:01 51.81130 -0.45389 5140 ft 231 kts 253°
2026-05-01 15:01 51.80753 -0.47874 6460 ft 228 kts 253°
2026-05-01 15:02 51.80398 -0.50224 7842 ft 220 kts 252°
2026-05-01 15:02 51.80162 -0.51772 8594 ft 221 kts 252°
2026-05-01 15:02 51.79676 -0.54951 10057 ft 226 kts 252°
2026-05-01 15:02 51.79304 -0.57380 11137 ft 229 kts 251°
2026-05-01 15:03 51.78925 -0.59852 12168 ft 232 kts 251°
2026-05-01 15:03 51.78540 -0.62362 13140 ft 236 kts 251°
2026-05-01 15:03 51.78146 -0.64922 14111 ft 239 kts 251°
2026-05-01 15:03 51.77747 -0.67522 15072 ft 242 kts 250°
2026-05-01 15:04 51.77342 -0.70148 15979 ft 246 kts 250°
2026-05-01 15:04 51.76932 -0.72806 16866 ft 250 kts 250°
2026-05-01 15:04 51.76513 -0.75518 17725 ft 253 kts 250°
2026-05-01 15:04 51.76046 -0.78242 18481 ft 253 kts 242°
2026-05-01 15:05 51.75085 -0.80524 19234 ft 249 kts 221°
2026-05-01 15:05 51.73868 -0.82476 19997 ft 251 kts 220°
2026-05-01 15:05 51.72643 -0.84450 20765 ft 253 kts 221°
2026-05-01 15:05 51.71394 -0.86465 21490 ft 256 kts 220°
2026-05-01 15:06 51.70142 -0.88477 22188 ft 259 kts 220°
2026-05-01 15:06 51.68866 -0.90524 22892 ft 262 kts 220°
2026-05-01 15:06 51.67556 -0.92626 23532 ft 266 kts 220°
2026-05-01 15:06 51.66249 -0.94719 24197 ft 270 kts 220°
2026-05-01 15:07 51.64914 -0.96857 24844 ft 273 kts 220°
2026-05-01 15:07 51.63582 -0.98990 25440 ft 277 kts 220°
2026-05-01 15:07 51.62213 -1.01179 26047 ft 279 kts 220°
2026-05-01 15:07 51.60836 -1.03381 26650 ft 281 kts 220°
2026-05-01 15:08 51.59447 -1.05598 27215 ft 284 kts 220°
2026-05-01 15:08 51.58021 -1.07873 27733 ft 288 kts 220°
2026-05-01 15:08 51.56602 -1.10136 28280 ft 290 kts 221°
2026-05-01 15:08 51.55182 -1.12399 28837 ft 291 kts 221°
2026-05-01 15:09 51.53745 -1.14686 29362 ft 292 kts 221°
2026-05-01 15:09 51.52291 -1.16997 29835 ft 295 kts 221°
2026-05-01 15:09 51.50729 -1.19104 30246 ft 294 kts 206°
2026-05-01 15:09 51.48843 -1.20201 30659 ft 292 kts 186°
2026-05-01 15:10 51.46824 -1.20073 31039 ft 294 kts 165°
2026-05-01 15:10 51.43041 -1.17471 31764 ft 302 kts 156°
2026-05-01 15:10 51.41307 -1.16190 32116 ft 304 kts 156°
2026-05-01 15:11 51.39287 -1.14701 32481 ft 307 kts 156°
2026-05-01 15:11 51.35387 -1.11831 33139 ft 313 kts 156°
2026-05-01 15:11 51.33393 -1.10366 33440 ft 317 kts 156°
2026-05-01 15:12 51.31392 -1.08897 33784 ft 318 kts 157°
2026-05-01 15:12 51.27374 -1.05953 34601 ft 316 kts 157°
2026-05-01 15:12 51.25389 -1.04484 34937 ft 316 kts 154°
2026-05-01 15:13 51.19686 -0.99127 35775 ft 316 kts 150°
2026-05-01 15:14 51.15920 -0.95537 36280 ft 316 kts 150°
2026-05-01 15:14 51.14044 -0.93753 36523 ft 316 kts 150°
2026-05-01 15:14 51.10257 -0.90160 37107 ft 315 kts 150°
2026-05-01 15:15 51.06484 -0.86588 37527 ft 318 kts 150°
2026-05-01 15:15 51.02649 -0.82967 38038 ft 318 kts 150°
2026-05-01 15:16 50.98841 -0.79381 38528 ft 316 kts 150°
2026-05-01 15:16 50.95015 -0.75785 38896 ft 317 kts 151°
2026-05-01 15:17 50.91195 -0.72203 39193 ft 318 kts 151°
2026-05-01 15:18 50.85303 -0.66694 39213 ft 333 kts 150°
2026-05-01 15:19 50.77074 -0.59027 39181 ft 354 kts 150°
2026-05-01 15:19 50.70586 -0.53006 39221 ft 367 kts 150°
2026-05-01 15:20 50.66138 -0.48889 39171 ft 378 kts 150°
2026-05-01 15:20 50.63833 -0.46758 39151 ft 382 kts 150°
2026-05-01 15:21 50.59208 -0.42492 39187 ft 389 kts 150°
2026-05-01 15:21 50.54517 -0.38175 39225 ft 397 kts 150°
2026-05-01 15:21 50.52113 -0.35966 39119 ft 403 kts 150°
2026-05-01 15:22 50.47255 -0.31510 39164 ft 408 kts 151°
2026-05-01 15:22 50.42334 -0.27008 39131 ft 414 kts 151°
2026-05-01 15:23 50.37289 -0.22403 39183 ft 419 kts 151°
2026-05-01 15:23 50.32236 -0.17803 39194 ft 424 kts 151°
2026-05-01 15:24 50.27109 -0.13147 39150 ft 431 kts 151°
2026-05-01 15:24 50.21904 -0.08436 39148 ft 434 kts 151°
2026-05-01 15:25 50.16445 -0.04364 39188 ft 435 kts 157°
2026-05-01 15:25 50.10885 -0.00554 39191 ft 438 kts 159°
2026-05-01 15:26 50.04982 0.01929 39164 ft 440 kts 167°
2026-05-01 15:26 49.98981 0.04097 39163 ft 442 kts 167°
2026-05-01 15:27 49.92989 0.06262 39175 ft 444 kts 167°
2026-05-01 15:28 49.83884 0.09548 39132 ft 448 kts 167°
2026-05-01 15:28 49.77829 0.11728 39141 ft 449 kts 168°
2026-05-01 15:29 49.68657 0.15023 39203 ft 451 kts 167°
2026-05-01 15:30 49.56390 0.19413 39205 ft 455 kts 168°
2026-05-01 15:31 49.37757 0.26042 39207 ft 460 kts 168°
2026-05-01 15:32 49.25192 0.30485 39157 ft 464 kts 168°
2026-05-01 15:34 49.06222 0.37149 39163 ft 469 kts 168°